Location: Unspecified
(0.0000°N, 0.0000°E)
Time: 18:07:55
(UTC+01:00)

Altair - All Passes

Search period start: 31 October 2014 00:00
Search period end: 10 November 2014 00:00
Orbit: 1501 x 1683 km, 47.2° (Epoch: 31 October)

Date Brightness Start Highest point End Pass type
(mag) Time Alt. Az. Time Alt. Az. Time Alt. Az.
31 Oct - 01:00:30 10° WSW 01:08:46 37° NW 01:17:17 10° NNE night (unlit)
31 Oct - 09:42:41 10° N 09:49:27 20° NE 09:56:09 10° E daylight
31 Oct - 11:44:19 10° NW 11:54:29 86° SW 12:04:23 10° SE daylight
31 Oct - 13:53:32 10° W 13:59:25 17° SW 14:05:13 10° S daylight
31 Oct - 22:30:45 10° SSW 22:39:09 40° SE 22:47:40 10° ENE visible
01 Nov - 00:35:08 10° WSW 00:43:37 42° NW 00:52:22 10° NNE night (unlit)
01 Nov - 09:18:07 10° N 09:24:12 17° NE 09:30:12 10° E daylight
01 Nov - 11:19:09 10° NW 11:29:19 85° NE 11:39:15 10° SE daylight
01 Nov - 13:27:32 10° W 13:34:10 20° SW 13:40:44 10° S daylight
01 Nov - 22:05:53 10° SSW 22:14:02 36° SE 22:22:14 10° ENE visible
02 Nov - 00:09:48 10° WSW 00:18:29 47° NW 00:27:25 10° NNE night (unlit)
02 Nov - 08:53:43 10° NNE 08:58:55 15° NE 09:04:04 10° ENE daylight
02 Nov - 10:54:00 10° NW 11:04:09 78° NE 11:14:05 10° SE daylight
02 Nov - 13:01:41 10° W 13:08:57 23° SW 13:16:08 10° S daylight
02 Nov - 21:41:04 10° S 21:48:53 31° SE 21:56:45 10° ENE visible
02 Nov - 23:44:31 10° SW 23:53:21 53° NW 00:02:25 10° NNE visible
03 Nov - 08:29:33 10° NNE 08:33:37 13° NE 08:37:39 10° ENE daylight
03 Nov - 10:28:54 10° NNW 10:38:59 70° NE 10:48:53 10° SE daylight
03 Nov - 12:35:55 10° W 12:43:44 26° SW 12:51:27 10° S daylight
03 Nov - 21:16:17 10° S 21:23:44 28° SE 21:31:12 10° ENE visible
03 Nov - 23:19:16 10° SW 23:28:14 59° NW 23:37:25 10° NNE visible
04 Nov - 08:06:02 10° NNE 08:08:18 11° NE 08:10:35 10° ENE daylight
04 Nov - 10:03:49 10° NNW 10:13:49 63° NE 10:23:39 10° SE daylight
04 Nov - 12:10:16 10° WNW 12:18:32 29° SW 12:26:42 10° S daylight
04 Nov - 20:51:33 10° S 20:58:35 24° SE 21:05:36 10° E visible
04 Nov - 22:54:03 10° SW 23:03:07 66° NW 23:12:22 10° NNE visible
05 Nov - 01:06:28 10° NW 01:08:21 11° NW 01:10:14 10° NNW night (unlit)
05 Nov - 09:38:46 10° NNW 09:48:38 56° NE 09:58:22 10° SE daylight
05 Nov - 11:44:40 10° WNW 11:53:20 33° SW 12:01:53 10° S daylight
05 Nov - 20:26:53 10° S 20:33:24 21° SE 20:39:54 10° E visible
05 Nov - 22:28:52 10° SW 22:38:00 74° NW 22:47:18 10° NNE visible
06 Nov - 00:39:28 10° WNW 00:43:05 13° NW 00:46:45 10° NNW night (unlit)
06 Nov - 09:13:45 10° NNW 09:23:28 50° NE 09:33:03 10° ESE daylight
06 Nov - 11:19:08 10° WNW 11:28:09 37° SW 11:37:02 10° SSE daylight
06 Nov - 20:02:19 10° S 20:08:13 19° SE 20:14:05 10° E visible
06 Nov - 22:03:43 10° SW 22:12:54 83° NW 22:22:12 10° NE visible
07 Nov - 00:13:09 10° WNW 00:17:50 15° NW 00:22:35 10° NNW night (unlit)
07 Nov - 08:48:46 10° NNW 08:58:16 45° NE 09:07:41 10° ESE daylight
07 Nov - 10:53:40 10° WNW 11:02:58 41° SW 11:12:09 10° SSE daylight
07 Nov - 19:37:51 10° S 19:43:01 16° SE 19:48:09 10° E visible
07 Nov - 21:38:36 10° SW 21:47:47 89° SE 21:57:05 10° NE visible
07 Nov - 23:47:07 10° W 23:52:36 17° NW 23:58:11 10° N visible
08 Nov - 08:23:49 10° NNW 08:33:05 40° NE 08:42:17 10° ESE daylight
08 Nov - 10:28:15 10° WNW 10:37:47 46° SW 10:47:13 10° SSE daylight
08 Nov - 19:13:35 10° SSE 19:17:48 14° SE 19:21:59 10° ESE visible
08 Nov - 21:13:31 10° SW 21:22:41 80° SE 21:31:56 10° NE visible
08 Nov - 23:21:16 10° W 23:27:24 20° NW 23:33:38 10° N visible
09 Nov - 07:58:54 10° NNW 08:07:53 36° NE 08:16:49 10° ESE daylight
09 Nov - 10:02:52 10° NW 10:12:36 52° SW 10:22:15 10° SSE daylight
09 Nov - 18:49:41 10° SSE 18:52:33 12° SE 18:55:25 10° ESE daylight
09 Nov - 20:48:27 10° SSW 20:57:35 72° SE 21:06:45 10° NE visible
09 Nov - 22:55:32 10° W 23:02:12 22° NW 23:09:00 10° N visible
